{"data":{"norad_id":47280,"epoch":"2026-05-25T02:26:42.101952Z","epoch_age_seconds":62676,"freshness":"FRESH","line1":"1 47280U 20100Y   26145.10187618  .00002333  00000+0  64500-2 0  9991","line2":"2 47280  87.8963 355.2352 0001791  82.9919 277.1413 13.12433548261687","mean_motion":13.12433548,"eccentricity":0.0001791,"inclination_deg":87.8963,"raan_deg":355.2352,"arg_perigee_deg":82.9919,"mean_anomaly_deg":277.1413,"bstar":0.00645,"rev_number":26168,"period_min":109.71984084028,"perigee_km":1212.4000327849,"apogee_km":1215.1194501977,"semimajor_km":7591.8967414913,"source":"CELESTRAK","updated_at":"2026-05-25T13:38:22.384033Z"}}